User: anonymous   Login
Location: Unspecified
(0.0000°N, 0.0000°E)
Time: 17:02:43
(UTC+00:00)
Language:

UOSAT-12 - Orbit

View from above orbital plane
View from above orbital plane
View from above satellite
View from above satellite

Ground track
Ground track

The orbit data is extracted from the following two-line orbital elements,

1 25693U 99021A   17265.17143814 -.00000076  00000-0  93011-5 0  9999
2 25693  64.5560 186.7692 0042072 298.9679  60.7211 14.80754588994523
Epoch (UTC): 22 September 2017 04:06:52
Eccentricity: 0.0042072
inclination: 64.5560°
perigee height: 597 km
apogee height: 656 km
right ascension of ascending node: 186.7692°
argument of perigee: 298.9679°
revolutions per day: 14.80754588
mean anomaly at epoch: 60.7211°
orbit number at epoch: 99452

The dashed part of the orbit path shows where the satellite is in the earth's shadow,  

DLR